This is the latest recevied weather packets stored in our database for station/object KE2HEH. If no packets are shown the sender has not sent any weather packets the latest 10 day(s).
| Time | Temp. | Humidity | Pressure | Rain* | Wind** | Luminosity | Snow |
|---|---|---|---|---|---|---|---|
| 1777480152 | 13.89° C | 72% | 1016.4 hPa | 0 mm | - | 636 W/m² | - |
| 1777479849 | 14.44° C | 71% | 1016.4 hPa | 0 mm | - | 622 W/m² | - |
| 1777479546 | 14.44° C | 71% | 1016.5 hPa | 0 mm | - | 657 W/m² | - |
| 1777479243 | 13.89° C | 71% | 1016.7 hPa | 0 mm | - | 598 W/m² | - |
| 1777478939 | 13.89° C | 72% | 1016.7 hPa | 0 mm | - | 561 W/m² | - |
| 1777478636 | 13.89° C | 72% | 1016.8 hPa | 0 mm | - | 591 W/m² | - |
| 1777478333 | 13.33° C | 73% | 1016.6 hPa | 0 mm | - | 573 W/m² | - |
| 1777478030 | 13.33° C | 72% | 1016.9 hPa | 0 mm | - | 393 W/m² | - |
| 1777477730 | 13.33° C | 72% | 1016.8 hPa | 0 mm | - | 487 W/m² | - |
| 1777477427 | 13.89° C | 70% | 1016.8 hPa | 0 mm | - | 441 W/m² | - |
| 1777477123 | 13.33° C | 72% | 1016.9 hPa | 0 mm | - | 627 W/m² | - |
| 1777476821 | 13.33° C | 72% | 1016.8 hPa | 0 mm | - | 335 W/m² | - |
| 1777476518 | 13.89° C | 72% | 1016.9 hPa | 0 mm | - | 383 W/m² | - |
| 1777476214 | 13.33° C | 73% | 1016.8 hPa | 0 mm | - | 645 W/m² | - |
| 1777475910 | 13.89° C | 72% | 1016.7 hPa | 0 mm | - | 417 W/m² | - |
| 1777475606 | 13.33° C | 73% | 1016.8 hPa | 0 mm | - | 295 W/m² | - |
| 1777475303 | 13.89° C | 71% | 1016.7 hPa | 0 mm | - | 430 W/m² | - |
| 1777474998 | 13.33° C | 73% | 1017 hPa | 0 mm | - | 392 W/m² | - |
| 1777474695 | 13.89° C | 71% | 1016.9 hPa | 0 mm | - | 583 W/m² | - |
| 1777474391 | 13.89° C | 71% | 1016.8 hPa | 0 mm | - | 462 W/m² | - |
| 1777474088 | 13.89° C | 73% | 1016.5 hPa | 0 mm | - | 636 W/m² | - |
| 1777473786 | 13.89° C | 73% | 1016.9 hPa | 0 mm | - | 663 W/m² | - |
| 1777473482 | 13.89° C | 73% | 1016.7 hPa | 0 mm | - | 633 W/m² | - |
| 1777473177 | 13.33° C | 74% | 1016.7 hPa | 0 mm | - | 620 W/m² | - |
| 1777472875 | 12.78° C | 74% | 1016.5 hPa | 0 mm | - | 560 W/m² | - |
* Rain latest hour (hover to see other rain measurements)
** Current wind speed in m/s (hover to see current wind gust speed)